Wind_Speed
1 2 2 3 5 8 8 11 14 18 22 24 22 20 14 11 10 12 11 10 9 12 11 11 13 14 17 18 18 19 18 19 19 29 27 27 27 26 26 24 23 22 22
3 5 3 5 6 8 10 13 18 21 21 19 17 13 8 10 13 11 4 5 11 11 10 12 17 19 20 20 19 20 19 21 23 27 28 27 25 25 24 23 20 22 20
2 3 6 6 6 7 11 17 20 19 19 16 11 7 7 8 5 5 8 10 7 8 13 17 19 19 21 21 22 23 22 21 22 24 29 27 26 22 22 21 22 22 20
4 6 6 5 6 9 14 18 20 20 14 12 9 9 7 5 5 6 5 5 9 12 15 16 18 18 20 22 22 22 21 20 21 24 26 25 23 21 20 19 19 18 17
7 8 7 5 8 12 17 19 19 15 10 8 6 5 5 3 3 4 6 9 12 15 15 16 17 19 20 19 20 21 21 22 21 21 22 22 21 19 18 17 16 16 16
9 8 6 7 10 16 17 16 14 9 7 4 6 6 1 2 4 8 11 11 13 14 17 18 17 15 15 18 18 18 18 20 22 22 22 21 22 23 19 18 17 16 10
8 5 5 8 14 15 14 13 12 9 8 6 8 3 1 2 8 11 14 11 13 15 16 17 16 16 16 16 17 22 21 20 22 24 24 24 23 19 17 18 17 17 19
4 5 7 13 13 12 13 15 13 11 10 8 5 4 2 5 9 11 13 11 13 14 15 15 16 17 16 17 22 21 18 18 19 17 19 22 22 20 19 20 20 20 17
5 7 12 12 10 11 14 15 13 10 8 9 6 5 5 6 9 10 11 12 14 16 15 16 15 16 16 20 20 19 19 19 16 19 20 21 21 21 20 18 18 16 13
7 11 13 12 10 10 12 14 13 9 8 6 6 6 7 8 9 10 10 12 15 16 16 15 14 15 18 19 19 18 18 19 21 20 18 16 13 14 15 16 17 17 18
10 13 14 12 10 11 13 11 12 9 6 6 7 7 9 9 8 10 10 11 13 16 16 17 15 16 18 17 16 13 17 19 17 16 15 14 13 12 11 10 12 15 17
13 13 12 9 9 11 11 12 10 7 5 5 8 9 9 10 10 10 10 11 11 14 15 15 15 17 16 15 13 15 15 14 14 14 14 14 14 14 13 13 13 14 15
14 10 9 9 11 11 10 11 10 8 6 7 8 9 9 8 8 10 10 12 10 12 13 15 14 15 15 11 13 12 12 12 13 14 14 15 15 15 15 13 12 10 13
12 9 8 9 13 12 10 9 8 8 8 8 10 11 11 9 9 8 8 10 11 11 13 12 11 12 12 10 11 11 11 11 11 12 14 15 14 15 14 15 11 9 3
10 9 10 11 12 12 10 10 10 11 10 10 12 12 12 12 11 9 8 10 10 11 13 9 9 10 11 11 11 11 12 13 12 12 14 15 15 15 15 15 14 11 10
10 10 12 12 12 11 11 12 12 13 13 14 14 14 14 16 14 12 10 10 10 12 9 9 9 9 10 11 11 12 11 13 12 12 12 13 14 14 15 14 13 13 12
10 12 13 14 13 11 11 12 13 11 12 14 15 15 15 15 14 13 11 11 11 10 8 8 8 8 9 9 10 10 12 12 12 10 11 12 13 12 13 12 12 12 11
11 13 15 14 15 13 12 13 14 15 13 12 12 14 14 14 14 15 12 11 11 10 9 9 8 8 8 8 9 9 11 11 11 11 10 11 12 11 12 12 12 12 12
14 13 14 16 16 16 13 12 14 15 16 15 15 14 16 15 14 15 14 14 14 12 10 10 8 8 8 8 8 7 8 10 11 10 9 10 11 11 10 10 10 11 11
14 17 17 16 16 15 14 13 12 13 15 16 17 18 13 14 12 13 16 16 15 15 13 12 10 8 8 8 7 8 8 8 9 9 9 9 9 9 9 9 10 10 11
11 13 17 18 15 16 15 14 14 15 16 16 16 15 15 16 16 15 14 15 18 16 14 12 11 10 9 9 8 7 7 7 8 8 8 8 9 9 9 8 8 8 9
17 15 14 15 16 15 16 16 15 15 16 17 17 16 18 20 17 17 17 17 19 20 18 16 13 11 10 9 8 7 7 7 7 7 7 8 8 8 9 8 8 8 9
20 19 17 15 16 16 17 19 18 18 19 19 18 18 16 17 18 20 20 22 21 20 20 19 18 16 14 13 12 10 8 7 7 9 8 7 7 8 8 8 9 8 8
17 19 18 18 15 16 16 18 19 22 25 22 22 22 21 21 20 21 23 22 22 20 20 20 19 17 16 14 13 11 10 9 8 8 8 7 7 7 7 6 7 7 7
19 19 19 19 19 17 17 17 18 19 21 23 23 23 24 23 24 24 22 22 21 20 20 20 20 18 17 16 14 12 11 10 8 8 7 7 7 7 6 5 5 6 6
18 19 19 19 19 19 19 19 18 18 18 21 22 22 22 22 23 24 23 22 22 21 19 20 20 19 17 16 15 13 11 10 9 8 7 6 6 5 5 4 4 4 5
Wind_Direction
203 332 31 58 360 347 346 341 337 328 321 314 310 305 296 275 283 281 288 279 297 300 290 289 289 292 294 294 293 290 288 288 290 295 295 297 295 293 290 286 274 273 279
85 94 35 348 341 340 341 335 326 322 319 317 314 306 282 285 296 292 276 306 300 289 291 296 296 298 297 297 296 294 291 289 290 293 297 296 297 297 290 286 277 271 278
91 355 337 323 321 327 330 328 326 327 328 332 332 318 316 310 299 287 294 300 300 296 300 300 301 302 301 302 300 296 293 290 289 291 294 297 295 290 295 287 280 273 272
324 313 289 286 308 325 329 330 331 333 334 335 334 327 329 320 303 307 320 321 308 306 306 305 305 303 304 304 301 297 297 293 292 290 290 294 294 296 286 289 287 271 267
295 283 266 286 312 324 331 332 331 332 330 332 341 338 332 34 46 4 335 322 318 316 315 314 310 306 304 301 300 299 300 296 293 287 287 289 291 293 292 289 282 288 283
285 278 262 297 317 328 330 327 327 324 327 336 330 322 90 60 338 331 329 323 323 322 320 318 318 318 315 310 305 299 293 294 292 290 288 285 292 285 288 282 281 283 282
288 263 280 309 321 326 322 316 314 308 311 300 307 229 238 2 328 331 328 327 325 324 323 322 321 319 318 316 312 305 300 296 291 290 289 282 281 288 291 289 282 270 270
269 271 304 314 313 318 320 317 309 295 281 286 261 234 261 308 325 329 329 327 327 326 324 322 318 318 318 318 318 316 315 313 306 300 297 279 279 279 279 276 281 287 269
278 301 311 302 301 319 324 322 315 293 272 278 235 237 274 306 322 328 335 327 327 327 326 321 319 319 318 323 322 319 319 316 315 311 306 301 285 278 274 277 270 268 263
308 307 305 294 295 314 321 321 320 299 272 250 220 254 283 301 312 324 332 325 324 326 327 323 323 325 323 327 327 326 321 327 323 319 315 313 311 291 283 263 261 259 261
309 309 308 292 285 306 317 315 315 301 266 229 236 272 285 289 298 317 325 324 320 322 324 325 326 329 329 330 330 327 334 328 323 322 321 317 315 311 306 283 256 243 249
305 311 317 295 287 305 309 307 298 284 254 248 270 279 279 284 288 303 314 314 313 317 319 321 324 327 329 329 329 327 331 338 331 330 330 330 326 320 311 301 288 259 244
304 299 315 307 294 301 301 301 289 262 250 270 278 281 282 280 279 293 303 314 312 315 313 315 319 327 332 336 336 338 345 345 341 338 336 332 327 322 321 319 307 270 251
301 289 298 300 301 297 287 283 271 252 257 275 284 282 282 284 280 282 296 310 314 317 322 324 327 334 342 342 349 352 351 348 345 340 337 336 337 344 346 349 347 348 287
295 284 283 297 306 300 272 269 262 257 257 275 287 281 279 285 282 279 294 302 309 311 326 331 336 346 351 352 353 354 357 357 356 352 348 349 350 353 356 0 6 9 25
293 284 281 290 299 286 271 275 272 269 268 271 277 278 277 282 279 275 285 285 294 308 322 329 334 339 344 345 346 349 353 356 353 351 353 353 353 353 356 3 10 11 10
296 291 289 284 282 275 269 266 274 272 278 270 265 273 269 277 275 266 271 272 282 297 305 313 316 327 329 334 338 343 343 345 347 349 351 352 352 353 358 1 5 7 5
308 301 295 287 284 267 264 269 270 261 270 282 276 264 268 269 270 256 260 262 270 276 281 291 300 309 316 320 329 335 339 343 346 347 349 351 353 353 354 358 2 1 355
292 287 283 293 291 270 257 269 272 264 259 270 277 272 268 267 261 255 249 249 264 273 274 275 280 290 298 305 311 320 328 335 340 342 344 348 351 355 352 352 348 351 350
295 292 294 292 290 277 252 260 266 266 266 272 274 270 259 264 253 249 248 250 253 262 265 266 270 275 281 292 298 307 317 328 337 341 341 343 345 350 348 348 351 348 351
296 295 291 290 286 281 255 256 261 265 267 268 271 268 272 259 252 256 257 249 254 256 259 259 261 264 272 281 288 292 302 312 327 332 335 339 342 344 346 345 346 348 347
281 288 293 289 290 281 260 255 258 258 259 263 266 269 275 264 252 251 254 259 261 261 260 259 257 255 260 263 270 278 291 297 317 327 330 336 339 342 344 347 350 353 357
288 284 278 283 286 285 273 258 254 256 257 258 261 264 263 260 254 253 254 262 265 265 257 255 256 256 259 262 268 275 279 281 299 318 324 328 334 340 342 345 348 352 1
297 292 288 284 285 288 280 267 258 258 257 258 259 258 255 255 256 255 263 259 259 263 254 251 252 254 253 255 259 266 276 280 290 306 312 316 320 330 337 339 348 350 353
300 294 290 284 278 281 286 280 272 268 262 259 259 257 256 252 252 258 258 259 251 257 256 249 249 250 248 248 252 258 267 272 278 294 299 305 309 318 329 325 336 348 355
302 296 295 293 291 284 280 282 280 278 276 273 269 265 262 257 252 250 255 252 249 251 255 249 246 244 244 243 245 249 254 260 267 281 288 289 292 293 311 317 323 336 350
Height
857 858 859 860 860 859 858 856 854 852 849 845 841 838 835 835 834 834 833 832 832 831 830 829 828 827 825 822 820 817 813 809 802 793 793 791 787 784 780 777 774 773 771
857 858 858 858 857 856 855 854 852 849 845 840 836 834 832 832 831 831 830 829 829 829 828 826 824 822 820 817 814 811 808 805 801 792 788 785 782 779 776 772 770 768 766
857 856 856 855 855 855 854 852 849 845 841 837 834 833 831 830 829 829 828 827 827 826 825 823 820 818 814 811 809 805 802 799 796 791 783 781 777 775 771 767 764 762 761
855 854 854 854 854 853 851 848 844 840 838 835 833 831 829 828 828 827 826 826 826 824 822 819 816 813 810 806 803 800 797 794 791 788 781 776 773 770 768 764 760 757 756
852 852 852 852 851 850 847 844 841 838 836 834 832 831 829 828 827 827 826 825 823 820 817 814 811 808 805 802 799 795 793 789 786 781 776 772 768 765 764 761 758 756 754
850 849 849 849 848 846 843 841 838 836 833 831 830 829 828 827 826 825 824 822 819 817 813 810 807 804 801 798 794 791 789 785 780 776 772 768 763 761 759 757 755 754 751
846 846 847 846 844 842 839 837 835 833 831 830 828 827 827 826 824 823 821 819 817 814 810 807 803 801 798 794 790 786 782 779 775 772 767 763 760 757 756 754 751 750 747
843 844 844 842 840 838 836 834 831 829 828 827 826 825 825 823 822 820 818 816 814 811 808 804 801 798 794 791 786 781 777 773 770 766 762 758 755 753 752 750 748 746 744
841 841 840 838 837 835 833 830 828 825 824 823 823 823 822 821 820 818 816 814 812 809 805 802 799 795 792 788 783 778 774 769 765 762 758 753 749 748 747 745 743 741 738
838 838 836 834 832 831 829 827 824 822 821 820 820 820 820 819 817 816 814 812 810 807 803 799 796 793 789 785 780 775 770 766 762 757 753 749 745 742 740 739 738 737 735
835 833 831 829 828 827 825 824 821 820 818 818 818 818 817 816 815 813 812 810 808 805 801 797 793 790 786 782 778 774 770 765 761 756 751 746 743 739 736 734 733 732 731
831 829 826 825 824 823 821 821 819 817 816 816 816 815 814 812 811 810 809 808 806 803 799 795 791 787 783 779 776 773 768 764 760 755 750 745 741 737 734 731 728 726 726
825 824 822 821 821 819 818 817 816 815 814 814 813 812 811 809 808 807 806 804 803 800 797 793 788 784 780 777 774 770 766 763 759 755 750 745 741 736 731 727 723 721 720
821 820 819 819 817 815 813 813 813 812 811 811 810 809 807 806 805 804 803 802 799 797 794 790 786 783 779 776 773 770 766 763 759 756 751 746 741 736 731 727 722 719 717
818 817 816 815 813 811 810 809 809 808 807 807 806 805 804 802 801 800 800 799 797 795 791 788 785 782 779 776 773 770 767 763 759 756 752 748 743 738 734 729 725 721 719
814 813 812 810 809 807 806 805 804 803 802 802 801 801 799 798 797 797 797 796 794 792 789 787 784 782 779 776 773 770 767 764 760 757 753 750 746 741 737 733 730 727 723
811 810 808 805 804 802 801 801 799 798 797 796 796 795 795 794 793 793 793 793 791 789 788 785 783 780 778 776 773 770 767 764 761 758 754 751 748 744 740 737 734 731 728
807 805 803 802 799 797 796 795 795 794 792 791 790 790 789 789 789 789 789 789 788 786 784 782 780 778 776 775 772 769 767 764 761 758 755 752 749 746 743 740 737 734 731
803 800 798 796 794 791 790 790 789 788 787 786 786 784 784 784 783 784 784 784 783 781 780 778 776 775 774 772 771 768 766 763 760 758 755 753 750 747 745 742 740 737 734
797 794 792 790 788 786 784 784 783 783 782 781 780 779 778 778 778 778 777 777 777 776 775 774 772 771 770 769 768 766 764 762 760 757 755 753 751 748 746 743 741 738 735
791 789 787 785 782 779 778 777 777 776 776 775 774 773 773 772 772 772 771 770 769 769 769 768 768 767 766 765 764 764 762 760 758 756 754 753 751 748 746 744 741 739 737
784 782 780 778 776 773 771 771 770 770 769 768 767 766 765 765 764 764 764 763 762 762 762 762 762 762 761 761 761 760 759 758 757 755 753 751 750 748 746 744 742 739 737
778 776 773 771 769 767 765 763 763 762 761 760 759 759 758 757 756 755 755 755 755 755 755 756 756 756 756 756 757 756 756 755 754 752 751 750 749 747 745 743 741 739 737
773 770 767 765 763 761 759 757 755 753 753 752 751 750 749 748 747 747 747 747 747 747 748 749 749 750 751 751 752 752 752 752 751 750 749 748 747 746 745 743 741 739 738
766 764 761 758 756 754 752 750 748 746 744 742 740 739 737 737 737 737 738 738 739 740 740 741 743 744 745 746 747 747 748 748 748 747 746 746 745 744 744 743 741 740 738
760 758 755 753 750 748 746 743 741 739 737 735 732 730 729 727 726 728 729 730 731 732 733 734 735 737 739 740 741 743 743 744 744 744 744 743 743 743 742 741 740 740 738